Regional Weather Roundup
Issued by NWS State College, PA

Home | Current Version | Previous Version | Text Only | Print | Product List | Glossary On
Versions: 1 2 3 4 5 6 7 8 9 10 11 12 13 14 15 16 17 18 19 20 21 22 23 24 25 26 27 28 29 30 31 32 33 34 35 36 37 38 39 40 41 42 43 44 45 46 47 48 49 50
000
ASUS41 KCTP 310910
RWRCTP

REGIONAL WEATHER ROUNDUP
NATIONAL WEATHER SERVICE STATE COLLEGE PA
500 AM EDT TUE MAY 31 2016

Note: "fair" indicates few or no clouds below 12,000 feet with no
significant weather and/or obstructions to visibility.

* = STATION THAT DOES NOT REPORT PRECIPITATION /E.G. RAIN...SNOW...ETC/
    THUNDER OR FOG.

PAZ002>004-007>009-013>016-020>023-029>032-311000-
WESTERN PENNSYLVANIA

CITY           SKY/WX    TMP DP  RH WIND       PRES   REMARKS
ERIE           CLEAR     62  54  74 S5        29.97S
MEADVILLE      CLEAR     59  54  83 CALM      30.00F
FRANKLIN*      CLEAR     54  50  87 CALM      30.03F
NEW CASTLE     FAIR      54  53  97 CALM      30.01S
BEAVER COUNTY  NOT AVBL
BUTLER*        PTCLDY   N/A N/A N/A CALM      30.03S
PITTSBURGH INT PTCLDY    62  55  77 CALM      29.99S
PITTSBURGH     CLEAR     63  56  78 CALM      29.99S
INDIANA*       CLEAR     55  54  94 E3        30.04S
LATROBE        CLEAR     55  55 100 CALM      30.01S
WASHINGTON CO*   N/A     54  50  87 CALM      30.00F VSB 1/2
$$

PAZ004>006-010>012-017>019-024>028-033>037-041-042-045-046-049>053-311000-
CENTRAL PENNSYLVANIA

CITY           SKY/WX    TMP DP  RH WIND       PRES   REMARKS
BRADFORD       CLEAR     49  46  90 CALM      30.03S
DUBOIS         PTCLDY    57  51  80 CALM      30.02S
CLEARFIELD     PTCLDY    53  50  89 CALM      30.02S
JOHNSTOWN      CLEAR     59  50  72 SW3       30.03S
ALTOONA        CLEAR     59  56  89 CALM      30.01S
STATE COLLEGE  PTCLDY    59  57  95 CALM      30.00S
WILLIAMSPORT   CLOUDY    63  60  90 N3        29.97S
SELINSGROVE    FOG       63  63 100 CALM      29.98S VSB 1/2
FT INDIANTOWN  FOG       63  63 100 CALM      29.96F VSB 1/2
CAPITAL CITY   MOCLDY    65  63  93 NW3       29.96S FOG
HARRISBURG     PTCLDY    67  64  90 N5        29.95S FOG
YORK           PTCLDY    66  65  96 CALM      29.96S FOG
$$

PAZ038>040-043-044-047-048-054-055-060>062-067>071-311000-
EASTERN PENNSYLVANIA

CITY           SKY/WX    TMP DP  RH WIND       PRES   REMARKS
SCRANTON       CLOUDY    61  60  97 CALM      29.98S FOG
MOUNT POCONO   CLOUDY    60  57  89 NW8       29.99F
ALLENTOWN      CLOUDY    66  62  87 CALM      29.95S
QUAKERTOWN*    CLOUDY    68  66  94 CALM      29.96F
READING        MOCLDY    67  64  90 CALM      29.95S
LANCASTER      MOCLDY    66  64  93 CALM      29.95F
COATESVILLE    CLOUDY    68  66  94 NW7       29.98R
POTTSTOWN      CLOUDY    68  66  93 CALM      29.97R
BLUE BELL      MOCLDY    66  64  94 CALM      29.94S
DOYLESTOWN     CLOUDY    69  67  93 CALM      29.94S
WILLOW GROVE   NOT AVBL
NORTH PHILA    CLOUDY    73  68  84 W3        29.95F
PHILADELPHIA   CLOUDY    71  67  87 SW5       29.95S
$$



USA.gov is the U.S. government's official web portal to all federal, state and local government web resources and services.